sat.trackr.live / text

‹ back to catalog

STARLINK-36399

NORAD 67665 · 2026-022T

PAYLOAD ACTIVE UNKNOWN

§ Identity

Operator
Country
US
Launch date
2026-02-02
Launch site
AFWTR
Launch vehicle
Mass (kg)
RCS (m²)

Purposes: comms

External: N2YO · Heavens-Above · Gunter

§ Orbital elements

Epoch: 2026-05-25T01:34:21.942336Z

Period
93.90 min
Inclination
97.2841°
Eccentricity
0.0001463
Mean motion
15.33466294 rev/d
Perigee alt
464.5 km
Apogee alt
466.5 km
Semi-major
6,843.6 km
B*
5.3340e-4
RAAN
178.2650°
Arg perigee
99.1529°
Mean anomaly
260.9879°
Rev number
1,727

§ Raw data

STARLINK-363991 67665U 26022T   26145.06553174  .00017196  00000+0  53340-3 0  99922 67665  97.2841 178.2650 0001463  99.1529 260.9879 15.33466294 17272

JSON: /api/v1/satellites/67665 · /tle

For live sub-satellite position, see the globe view (requires WebGL).

§ Visibility from observer

Set your observer location to see the next 7 days of passes ≥ 10°. The values pass through the URL so the page stays shareable.

No JS? Fill the form by hand. The geolocation button needs JavaScript.